Location: Unspecified
(47.1121°N, 116.3927°W)
Time: 14:38:46
(UTC-07:00)

ISS - Pass Details

Date: 25 May 2019
Orbit: 407 x 418 km, 51.6° (Epoch: 20 June)

Event Time Altitude Azimuth Distance (km) Brightness Sun altitude
Rises 22:04:02 0° 285° (WNW) 2,354 1.0 -13.0°
Reaches altitude 10° 22:06:13 10° 294° (WNW) 1,494 0.0 -13.3°
Maximum altitude 22:09:22 36° 3° (N) 677 -2.2 -13.6°
Drops below altitude 10° 22:12:31 10° 73° (ENE) 1,499 -1.1 -13.9°
Enters shadow 22:13:32 - 78° (ENE) 1,896 -0.7 -14.0°
